• In Netherlands
  • List of Countries
  • For 7 days
  • Water Temperature
  • Satellite Maps
  • Weather Map
  • Weather Widgets
  • user-avatar
    Login

    Hourly Weather Las Vegas

    Today, 24 November, Friday

    Time Temperature Precipitation Wind Pressure Humidity
    00:00 +17°C° 0 mm 0 mps 708 mmHg 36%
    01:00 +17°C° 0 mm 0 mps 708 mmHg 37%
    02:00 +17°C° 0 mm 0 mps 708 mmHg 38%
    03:00 +16°C° 0 mm 0 mps 708 mmHg 39%
    04:00 +16°C° 0 mm 0 mps 708 mmHg 40%
    05:00 +16°C° 0 mm 0 mps 708 mmHg 38%
    06:00 +16°C° 0 mm 0 mps 708 mmHg 37%
    07:00 +16°C° 0 mm 0 mps 708 mmHg 36%
    08:00 +19°C° 0 mm 0 mps 708 mmHg 31%
    09:00 +22°C° 0 mm 0 mps 709 mmHg 26%
    10:00 +24°C° 0 mm 0 mps 709 mmHg 21%
    11:00 +27°C° 0 mm 1 mps 709 mmHg 20%
    12:00 +28°C° 0 mm 1 mps 709 mmHg 19%
    13:00 +29°C° 0 mm 1 mps 708 mmHg 18%
    14:00 +28°C° 0 mm 1 mps 708 mmHg 19%
    15:00 +27°C° 0 mm 1 mps 708 mmHg 21%
    16:00 +26°C° 0 mm 1 mps 708 mmHg 22%
    17:00 +25°C° 0 mm 1 mps 708 mmHg 25%
    18:00 +21°C° 0 mm 0 mps 708 mmHg 27%
    19:00 +20°C° 0 mm 0 mps 708 mmHg 29%
    20:00 +19°C° 0 mm 0 mps 708 mmHg 30%
    21:00 +19°C° 0 mm 0 mps 709 mmHg 30%
    22:00 +18°C° 0 mm 0 mps 709 mmHg 31%
    23:00 +18°C° 0 mm 0 mps 709 mmHg 31%

    Tomorrow, 25 November, Saturday

    Time Temperature Precipitation Wind Pressure Humidity
    00:00 +17°C° 0 mm 0 mps 709 mmHg 32%
    01:00 +17°C° 0 mm 0 mps 709 mmHg 32%
    02:00 +17°C° 0 mm 0 mps 709 mmHg 34%
    03:00 +18°C° 0 mm 1 mps 709 mmHg 35%
    04:00 +18°C° 0 mm 1 mps 709 mmHg 36%
    05:00 +18°C° 0 mm 1 mps 709 mmHg 36%
    06:00 +18°C° 0 mm 1 mps 710 mmHg 35%
    07:00 +18°C° 0 mm 1 mps 710 mmHg 35%
    08:00 +21°C° 0 mm 1 mps 711 mmHg 30%
    09:00 +24°C° 0 mm 1 mps 711 mmHg 26%
    10:00 +26°C° 0 mm 1 mps 712 mmHg 21%
    11:00 +27°C° 0 mm 1 mps 712 mmHg 20%
    12:00 +28°C° 0 mm 1 mps 712 mmHg 18%
    13:00 +29°C° 0 mm 1 mps 711 mmHg 17%
    14:00 +28°C° 0 mm 1 mps 711 mmHg 18%
    15:00 +27°C° 0 mm 1 mps 711 mmHg 20%
    16:00 +26°C° 0 mm 1 mps 710 mmHg 21%
    17:00 +25°C° 0 mm 1 mps 711 mmHg 23%
    18:00 +24°C° 0 mm 1 mps 711 mmHg 25%
    19:00 +22°C° 0 mm 1 mps 711 mmHg 27%
    20:00 +22°C° 0 mm 1 mps 711 mmHg 28%
    21:00 +21°C° 0 mm 1 mps 711 mmHg 28%
    22:00 +21°C° 0 mm 1 mps 712 mmHg 29%
    23:00 +21°C° 0 mm 1 mps 712 mmHg 30%

    Day after tomorrow, 26 November, Sunday

    Time Temperature Precipitation Wind Pressure Humidity
    00:00 +20°C° 0 mm 1 mps 711 mmHg 30%
    01:00 +20°C° 0 mm 1 mps 711 mmHg 31%
    02:00 +19°C° 0 mm 1 mps 711 mmHg 32%
    03:00 +19°C° 0 mm 1 mps 711 mmHg 33%
    04:00 +19°C° 0 mm 1 mps 710 mmHg 34%
    05:00 +19°C° 0 mm 1 mps 711 mmHg 34%
    06:00 +18°C° 0 mm 1 mps 711 mmHg 34%
    07:00 +18°C° 0 mm 1 mps 711 mmHg 34%
    08:00 +21°C° 0 mm 1 mps 711 mmHg 30%
    09:00 +24°C° 0 mm 2 mps 712 mmHg 25%
    10:00 +26°C° 0 mm 2 mps 712 mmHg 21%
    11:00 +27°C° 0 mm 3 mps 711 mmHg 19%
    12:00 +28°C° 0 mm 3 mps 710 mmHg 17%
    13:00 +29°C° 0 mm 4 mps 709 mmHg 15%
    14:00 +29°C° 0 mm 4 mps 709 mmHg 15%
    15:00 +28°C° 0 mm 4 mps 709 mmHg 16%
    16:00 +27°C° 0 mm 3 mps 708 mmHg 16%
    17:00 +26°C° 0 mm 3 mps 708 mmHg 18%
    18:00 +25°C° 0 mm 3 mps 708 mmHg 19%
    19:00 +22°C° 0 mm 3 mps 708 mmHg 20%
    20:00 +22°C° 0 mm 4 mps 708 mmHg 21%
    21:00 +21°C° 0 mm 4 mps 708 mmHg 22%
    22:00 +21°C° 0 mm 4 mps 708 mmHg 22%
    23:00 +20°C° 0 mm 4 mps 707 mmHg 23%

    27 November, Monday

    Time Temperature Precipitation Wind Pressure Humidity
    00:00 +20°C° 0 mm 4 mps 707 mmHg 24%
    01:00 +19°C° 0 mm 4 mps 706 mmHg 25%
    02:00 +19°C° 0 mm 4 mps 706 mmHg 25%
    03:00 +19°C° 0 mm 4 mps 705 mmHg 26%
    04:00 +18°C° 0 mm 4 mps 705 mmHg 27%
    05:00 +17°C° 0 mm 5 mps 704 mmHg 30%
    06:00 +17°C° 0 mm 5 mps 704 mmHg 34%
    07:00 +16°C° 0 mm 5 mps 704 mmHg 37%
    08:00 +17°C° 0 mm 7 mps 704 mmHg 38%
    09:00 +17°C° 0 mm 9 mps 704 mmHg 38%
    10:00 +17°C° 0 mm 11 mps 704 mmHg 38%
    11:00 +17°C° 0 mm 12 mps 704 mmHg 33%
    12:00 +17°C° 0 mm 12 mps 704 mmHg 29%
    13:00 +17°C° 0 mm 13 mps 704 mmHg 24%
    14:00 +15°C° 0.1 mm 12 mps 704 mmHg 25%
    15:00 +14°C° 0.1 mm 11 mps 705 mmHg 26%
    16:00 +13°C° 0.1 mm 10 mps 705 mmHg 27%
    17:00 +13°C° 0 mm 9 mps 706 mmHg 28%
    18:00 +13°C° 0 mm 8 mps 707 mmHg 29%
    19:00 +12°C° 0 mm 7 mps 707 mmHg 30%
    20:00 +13°C° 0 mm 6 mps 708 mmHg 32%
    21:00 +12°C° 0 mm 5 mps 708 mmHg 34%
    22:00 +12°C° 0 mm 4 mps 709 mmHg 36%
    23:00 +11°C° 0 mm 4 mps 709 mmHg 38%

    28 November, Tuesday

    Time Temperature Precipitation Wind Pressure Humidity
    00:00 +11°C° 0 mm 4 mps 710 mmHg 39%
    01:00 +10°C° 0 mm 3 mps 710 mmHg 40%
    02:00 +10°C° 0 mm 3 mps 711 mmHg 41%
    03:00 +10°C° 0 mm 3 mps 711 mmHg 42%
    04:00 +9°C° 0 mm 3 mps 711 mmHg 42%
    05:00 +9°C° 0 mm 3 mps 712 mmHg 43%
    06:00 +9°C° 0 mm 3 mps 712 mmHg 43%
    07:00 +9°C° 0 mm 3 mps 713 mmHg 44%
    08:00 +11°C° 0 mm 3 mps 713 mmHg 37%
    09:00 +13°C° 0 mm 4 mps 713 mmHg 30%
    10:00 +15°C° 0 mm 5 mps 714 mmHg 24%
    11:00 +17°C° 0 mm 4 mps 713 mmHg 21%
    12:00 +18°C° 0 mm 4 mps 712 mmHg 19%
    13:00 +19°C° 0 mm 4 mps 712 mmHg 16%
    14:00 +18°C° 0 mm 3 mps 711 mmHg 17%
    15:00 +18°C° 0 mm 2 mps 711 mmHg 17%
    16:00 +17°C° 0 mm 2 mps 711 mmHg 18%
    17:00 +16°C° 0 mm 1 mps 711 mmHg 20%
    18:00 +15°C° 0 mm 1 mps 711 mmHg 21%
    19:00 +13°C° 0 mm 1 mps 711 mmHg 23%
    20:00 +13°C° 0 mm 1 mps 711 mmHg 24%
    21:00 +12°C° 0 mm 1 mps 711 mmHg 25%
    22:00 +12°C° 0 mm 1 mps 711 mmHg 25%
    23:00 +12°C° 0 mm 1 mps 711 mmHg 26%

    29 November, Wednesday

    Time Temperature Precipitation Wind Pressure Humidity
    00:00 +11°C° 0 mm 1 mps 710 mmHg 27%
    01:00 +11°C° 0 mm 1 mps 710 mmHg 28%
    02:00 +11°C° 0 mm 1 mps 710 mmHg 28%
    03:00 +11°C° 0 mm 1 mps 710 mmHg 29%
    04:00 +10°C° 0 mm 1 mps 710 mmHg 30%
    05:00 +10°C° 0 mm 1 mps 710 mmHg 30%
    06:00 +11°C° 0 mm 1 mps 710 mmHg 30%
    07:00 +11°C° 0 mm 1 mps 711 mmHg 30%
    08:00 +13°C° 0 mm 1 mps 711 mmHg 26%
    09:00 +15°C° 0 mm 1 mps 711 mmHg 22%
    10:00 +16°C° 0 mm 0 mps 712 mmHg 18%
    11:00 +19°C° 0 mm 1 mps 711 mmHg 17%
    12:00 +20°C° 0 mm 1 mps 711 mmHg 15%
    13:00 +20°C° 0 mm 2 mps 710 mmHg 14%
    14:00 +20°C° 0 mm 1 mps 710 mmHg 15%
    15:00 +20°C° 0 mm 1 mps 710 mmHg 17%
    16:00 +19°C° 0 mm 1 mps 710 mmHg 18%
    17:00 +18°C° 0 mm 1 mps 710 mmHg 18%
    18:00 +16°C° 0 mm 2 mps 711 mmHg 19%
    19:00 +14°C° 0 mm 3 mps 712 mmHg 20%
    20:00 +14°C° 0 mm 4 mps 712 mmHg 23%
    21:00 +13°C° 0 mm 5 mps 713 mmHg 26%
    22:00 +11°C° 0 mm 6 mps 714 mmHg 30%
    23:00 +10°C° 0 mm 6 mps 714 mmHg 32%
    Show more